Location: Berg
(47.2344°N, 9.5296°E)
Time: 15:30:49
(UTC+00:00)

Cosmos 44 - Pass Details

Date: 09 May 2021
Orbit: 571 x 791 km, 65.1° (Epoch: 11 June)

Event Time Altitude Azimuth Distance (km) Brightness Sun altitude
Rises 23:51:12 0° 311° (NW) 3,287 7.2 -24.7°
Reaches altitude 10° 23:54:18 10° 295° (WNW) 2,338 6.2 -24.6°
Enters shadow 23:56:46 18° 268° (W) 1,847 5.3 -24.6°
